| time (UTC) | temp F | wind direction | speed MPH | gust MPH | rain 1hr in | rain 24hr in | rain mn in | humidity % | barometer mb |
| 20260505061535 | 41 | 211 | 4.0 | 14.0 | 0.00 | 0.13 | 0.00 | 92 | 1008.8 |
| 20260505060032 | 41 | 236 | 7.0 | 18.0 | 0.00 | 0.13 | 0.00 | 92 | 1008.3 |
| 20260505054536 | 41 | 192 | 5.0 | 16.0 | 0.00 | 0.13 | 0.00 | 92 | 1008.0 |
| 20260505053023 | 41 | 237 | 6.0 | 14.0 | 0.00 | 0.13 | 0.00 | 93 | 1007.8 |
| 20260505051534 | 41 | 224 | 5.0 | 12.0 | 0.00 | 0.13 | 0.00 | 92 | 1007.7 |
| 20260505041508 | 42 | 268 | 5.0 | 9.0 | 0.00 | 0.15 | 0.00 | 90 | 1006.9 |
| 20260505040006 | 42 | 242 | 6.0 | 14.0 | 0.00 | 0.15 | 0.00 | 88 | 1006.5 |
| 20260505034503 | 43 | 244 | 7.0 | 15.0 | 0.00 | 0.15 | 0.00 | 88 | 1006.4 |
| 20260505033100 | 43 | 213 | 7.0 | 15.0 | 0.00 | 0.15 | 0.00 | 87 | 1006.3 |
| 20260505031604 | 44 | 246 | 5.0 | 18.0 | 0.00 | 0.15 | 0.00 | 85 | 1006.1 |
| 20260505024551 | 45 | 221 | 6.0 | 13.0 | 0.00 | 0.15 | 0.15 | 82 | 1005.7 |
| 20260505023048 | 46 | 227 | 6.0 | 15.0 | 0.00 | 0.15 | 0.15 | 80 | 1005.6 |
| 20260505021554 | 46 | 213 | 6.0 | 14.0 | 0.00 | 0.15 | 0.15 | 78 | 1005.4 |
| 20260505020053 | 47 | 217 | 6.0 | 13.0 | 0.00 | 0.15 | 0.15 | 77 | 1005.2 |
| 20260505014625 | 47 | 243 | 5.0 | 11.0 | 0.00 | 0.16 | 0.15 | 77 | 1005.2 |
| 20260505013043 | 47 | 223 | 4.0 | 9.0 | 0.00 | 0.16 | 0.15 | 76 | 1005.3 |
| 20260505011542 | 47 | 215 | 4.0 | 10.0 | 0.00 | 0.16 | 0.15 | 74 | 1005.3 |
| 20260505004541 | 50 | 237 | 3.0 | 14.0 | 0.00 | 0.21 | 0.15 | 69 | 1005.1 |
| 20260505003047 | 51 | 250 | 9.0 | 19.0 | 0.00 | 0.21 | 0.15 | 67 | 1005.1 |
| 20260505001540 | 51 | 250 | 8.0 | 20.0 | 0.00 | 0.21 | 0.15 | 64 | 1004.6 |
| 20260505000043 | 50 | 260 | 6.0 | 17.0 | 0.00 | 0.21 | 0.15 | 66 | 1004.6 |
| 20260504234534 | 47 | 202 | 2.0 | 9.0 | 0.00 | 0.34 | 0.15 | 74 | 1004.2 |
| 20260504233032 | 49 | 192 | 5.0 | 10.0 | 0.00 | 0.34 | 0.15 | 69 | 1003.8 |
| 20260504231534 | 51 | 206 | 4.0 | 15.0 | 0.00 | 0.34 | 0.15 | 59 | 1003.6 |
| 20260504230028 | 51 | 244 | 5.0 | 15.0 | 0.00 | 0.34 | 0.15 | 59 | 1003.4 |
| 20260504224532 | 52 | 253 | 5.0 | 14.0 | 0.00 | 0.62 | 0.15 | 58 | 1003.3 |
| 20260504223038 | 53 | 284 | 7.0 | 21.0 | 0.00 | 0.62 | 0.15 | 57 | 1003.3 |
| 20260504221525 | 53 | 246 | 9.0 | 20.0 | 0.00 | 0.62 | 0.15 | 57 | 1003.1 |
| 20260504220022 | 54 | 218 | 7.0 | 17.0 | 0.00 | 0.62 | 0.15 | 57 | 1002.8 |
| 20260504214534 | 54 | 251 | 11.0 | 23.0 | 0.00 | 0.80 | 0.15 | 57 | 1002.5 |
| 20260504213021 | 54 | 279 | 9.0 | 25.0 | 0.00 | 0.80 | 0.15 | 59 | 1002.3 |
| 20260504211521 | 54 | 299 | 10.0 | 26.0 | 0.00 | 0.80 | 0.15 | 60 | 1002.5 |
| 20260504210020 | 54 | 254 | 9.0 | 32.0 | 0.00 | 0.80 | 0.15 | 62 | 1002.3 |
| 20260504204515 | 54 | 162 | 12.0 | 20.0 | 0.00 | 0.91 | 0.15 | 62 | 1002.1 |
| 20260504203017 | 54 | 269 | 9.0 | 23.0 | 0.00 | 0.91 | 0.15 | 60 | 1002.0 |
| 20260504201512 | 54 | 261 | 11.0 | 27.0 | 0.00 | 0.91 | 0.15 | 59 | 1001.8 |
| 20260504200015 | 54 | 258 | 10.0 | 32.0 | 0.00 | 0.91 | 0.15 | 60 | 1001.5 |
| 20260504194509 | 53 | 301 | 13.0 | 31.0 | 0.00 | 0.91 | 0.15 | 59 | 1001.2 |
| 20260504193104 | 53 | 267 | 12.0 | 27.0 | 0.00 | 0.91 | 0.15 | 62 | 1000.8 |
| 20260504191501 | 53 | 290 | 14.0 | 27.0 | 0.00 | 0.91 | 0.15 | 65 | 1000.6 |
| 20260504190056 | 53 | 281 | 14.0 | 28.0 | 0.00 | 0.91 | 0.15 | 68 | 1000.4 |
| 20260504184553 | 52 | 230 | 9.0 | 34.0 | 0.00 | 0.93 | 0.15 | 73 | 1000.3 |
| 20260504183050 | 51 | 240 | 13.0 | 29.0 | 0.00 | 0.93 | 0.15 | 74 | 1000.1 |
| 20260504181546 | 51 | 298 | 12.0 | 26.0 | 0.00 | 0.93 | 0.15 | 76 | 999.9 |
| 20260504180045 | 50 | 254 | 19.0 | 32.0 | 0.00 | 0.93 | 0.15 | 77 | 999.9 |
| 20260504174541 | 49 | 254 | 8.0 | 29.0 | 0.00 | 0.93 | 0.15 | 81 | 999.4 |
| 20260504173039 | 48 | 294 | 11.0 | 32.0 | 0.00 | 0.93 | 0.15 | 83 | 999.2 |
| 20260504171535 | 47 | 265 | 14.0 | 29.0 | 0.00 | 0.93 | 0.15 | 84 | 999.0 |
| 20260504081603 | 38 | 233 | 11.0 | 25.0 | 0.01 | 0.86 | 0.08 | 99 | 979.9 |